Temperature
6 4 4 4 5 6 5 5 5 5 5 4 3 3 2 2 1 1 1 1 1 1 2 3 3 4 4 5 5 6 6 7 7 7 7 8 8 8 8 8 8 8 8 8
4 4 5 5 5 5 5 5 4 4 4 4 2 2 2 1 1 0 -0 -0 -0 1 2 2 2 3 4 4 4 5 5 6 6 6 6 7 7 7 7 8 8 7 8 8
5 5 5 5 5 5 5 4 4 4 3 3 3 2 1 1 0 -0 -0 -1 -1 -0 0 1 1 2 2 3 3 4 4 5 5 5 5 6 6 7 7 7 7 7 7 7
4 4 5 5 4 4 4 4 4 4 3 2 2 2 1 0 -0 -0 -1 -1 -1 -1 -1 -0 0 1 1 2 2 3 3 4 4 5 5 5 5 5 6 6 6 6 6 6
4 4 4 4 4 4 4 4 3 3 2 1 1 1 1 -0 -0 -1 -1 -1 -1 -1 -1 -1 -1 -0 0 1 2 2 2 3 3 4 4 4 4 4 5 5 5 6 6 6
3 4 4 4 4 4 3 2 2 1 1 2 1 0 1 -1 -1 -1 -1 -2 -2 -2 -1 -1 -1 -1 -0 0 1 1 2 2 3 3 3 3 3 3 4 4 5 5 5 5
3 4 3 3 3 3 2 2 1 1 1 1 1 0 -0 -1 -1 -1 -2 -2 -2 -2 -2 -2 -1 -1 -1 -0 0 1 1 2 2 2 3 3 3 3 3 3 3 4 4 5
2 2 3 3 3 2 2 2 2 2 1 0 0 -0 -1 -1 -1 -2 -2 -2 -2 -2 -2 -2 -2 -2 -2 -1 -1 -0 0 1 1 1 2 2 2 2 2 2 3 3 3 4
2 2 3 3 3 2 2 1 1 -0 -1 -1 -1 -1 -2 -2 -2 -2 -3 -3 -3 -3 -3 -3 -3 -2 -2 -2 -1 -1 -1 -0 0 1 1 1 1 1 2 2 2 2 3 3
1 1 2 2 2 2 1 -0 -1 -0 -0 -0 -1 -1 -1 -2 -3 -3 -4 -4 -3 -3 -3 -3 -3 -3 -3 -2 -2 -2 -1 -1 -1 -0 -0 0 1 1 1 1 2 2 2 2
1 1 1 1 1 1 0 0 -1 -2 -1 -1 -1 -1 -2 -3 -3 -4 -4 -4 -4 -4 -4 -4 -3 -3 -3 -3 -3 -2 -2 -2 -1 -1 -1 -0 -0 0 0 1 1 1 2 2
-0 -1 -1 0 0 0 0 -1 -1 -1 -2 -3 -3 -2 -2 -4 -4 -4 -4 -4 -4 -4 -4 -4 -4 -4 -3 -3 -3 -3 -3 -2 -2 -2 -2 -1 -1 -0 -0 0 1 1 1 1
-0 -1 -1 0 0 -1 -1 -1 -1 -2 -2 -3 -3 -2 -3 -4 -4 -4 -4 -4 -5 -5 -5 -5 -4 -4 -4 -4 -4 -4 -3 -3 -3 -2 -2 -2 -1 -1 -1 -0 0 0 1 1
0 -2 -1 -0 -0 -1 -1 -1 -2 -2 -3 -4 -4 -3 -4 -4 -5 -5 -5 -5 -5 -5 -5 -5 -5 -5 -5 -5 -4 -4 -4 -4 -3 -3 -3 -2 -2 -2 -2 -1 -1 -0 -0 0
-1 -2 -2 -2 -2 -2 -2 -2 -2 -3 -3 -3 -3 -4 -4 -5 -6 -5 -5 -5 -6 -6 -6 -6 -6 -6 -6 -5 -5 -5 -5 -4 -4 -4 -3 -3 -3 -2 -2 -2 -1 -1 -1 -0
-3 -3 -3 -3 -2 -3 -3 -3 -3 -3 -3 -4 -4 -5 -6 -5 -5 -6 -6 -6 -6 -6 -6 -7 -6 -6 -6 -6 -6 -6 -5 -5 -5 -4 -4 -4 -4 -3 -3 -2 -2 -2 -1 -1
-4 -3 -3 -4 -4 -3 -4 -4 -4 -4 -5 -5 -5 -5 -6 -6 -6 -6 -6 -6 -6 -7 -7 -7 -7 -7 -7 -7 -7 -6 -6 -6 -5 -5 -5 -4 -4 -4 -4 -3 -3 -2 -2 -2
-4 -4 -4 -4 -4 -4 -4 -5 -5 -5 -6 -6 -6 -7 -7 -6 -6 -6 -6 -6 -7 -7 -7 -7 -7 -7 -7 -7 -7 -7 -6 -6 -6 -6 -5 -5 -5 -5 -4 -4 -3 -3 -3 -2
-5 -4 -5 -5 -5 -5 -5 -5 -6 -6 -6 -7 -7 -7 -7 -7 -7 -6 -6 -7 -7 -7 -8 -8 -8 -8 -8 -8 -7 -7 -7 -7 -6 -6 -6 -6 -5 -5 -5 -5 -4 -4 -3 -3
-6 -5 -5 -6 -5 -4 -5 -5 -5 -6 -7 -7 -7 -7 -7 -8 -8 -7 -7 -7 -7 -8 -8 -8 -8 -8 -8 -8 -8 -8 -8 -7 -7 -7 -7 -6 -6 -6 -5 -5 -5 -4 -4 -4
-6 -6 -6 -6 -6 -6 -6 -6 -6 -6 -6 -6 -6 -7 -7 -8 -8 -7 -7 -8 -8 -8 -8 -8 -8 -8 -8 -8 -9 -9 -8 -8 -8 -8 -7 -7 -6 -6 -6 -6 -5 -5 -5 -4
-6 -7 -7 -7 -7 -6 -6 -7 -7 -7 -6 -6 -6 -7 -7 -7 -7 -8 -8 -8 -8 -8 -8 -9 -9 -9 -9 -9 -9 -9 -9 -9 -8 -8 -8 -7 -7 -6 -6 -6 -6 -6 -6 -5
-7 -7 -7 -7 -6 -6 -6 -6 -5 -6 -6 -6 -7 -7 -7 -8 -8 -8 -8 -9 -9 -9 -9 -9 -9 -9 -9 -9 -9 -9 -9 -9 -9 -9 -8 -8 -7 -7 -7 -7 -7 -6 -6 -6
-8 -8 -8 -8 -8 -7 -6 -6 -6 -6 -6 -7 -7 -7 -8 -8 -8 -9 -9 -9 -9 -9 -9 -10 -10 -10 -9 -9 -9 -10 -10 -9 -9 -9 -9 -8 -8 -7 -7 -7 -7 -7 -7 -7
-8 -9 -9 -9 -9 -7 -6 -6 -6 -6 -7 -7 -7 -8 -8 -8 -9 -9 -9 -9 -9 -10 -10 -10 -10 -10 -10 -10 -10 -10 -10 -10 -9 -9 -9 -9 -8 -8 -8 -8 -8 -8 -7 -7
-9 -9 -9 -8 -7 -7 -6 -6 -6 -7 -7 -7 -8 -8 -8 -9 -9 -9 -9 -10 -10 -10 -10 -10 -10 -10 -10 -10 -10 -10 -10 -10 -10 -10 -9 -9 -9 -9 -9 -8 -8 -8 -8 -7
Wind_Speed
5 6 3 1 1 1 2 2 3 4 3 2 1 2 3 4 5 5 6 7 7 7 7 8 9 8 8 8 9 9 9 8 6 4 3 2 2 2 1 2 3 2 2 2
6 3 3 1 1 2 1 1 3 4 4 2 2 2 1 2 3 4 5 6 7 8 10 11 10 9 9 8 9 8 8 8 6 4 3 3 3 2 2 2 3 3 3 2
3 1 2 3 3 3 2 1 3 4 5 2 1 3 1 1 3 5 5 5 6 7 9 10 11 9 8 9 9 8 8 8 7 6 4 4 3 2 2 2 2 4 4 3
2 3 2 3 2 1 3 3 3 3 2 3 0 4 3 1 2 5 6 7 7 7 8 9 10 10 9 8 8 8 8 8 7 6 5 4 3 3 4 4 3 4 4 3
1 2 2 2 3 1 3 4 3 3 2 2 1 3 5 1 2 4 5 6 7 7 7 8 9 9 8 8 7 7 7 7 7 6 5 4 4 4 4 4 3 3 3 3
1 1 1 1 2 1 1 3 3 3 3 3 3 4 5 1 2 3 3 5 6 7 8 8 8 8 8 8 7 7 8 8 8 7 6 5 5 6 6 5 4 4 3 3
4 3 2 1 2 4 4 4 4 5 2 5 1 3 5 1 1 1 2 4 6 6 7 8 9 10 10 10 9 8 9 9 9 8 7 6 5 5 5 5 4 4 3 3
2 5 3 2 1 1 0 3 3 3 4 5 3 4 4 1 2 2 2 3 5 6 6 7 8 8 9 10 10 10 10 9 9 8 8 7 6 4 4 5 5 5 4 4
0 4 3 3 2 2 2 1 2 3 1 4 5 4 4 1 3 4 5 5 6 6 7 7 8 8 8 9 10 9 10 9 9 9 8 7 7 6 6 6 5 4 4 4
2 4 4 4 2 3 2 4 3 2 2 5 6 5 4 3 3 5 6 6 7 8 8 8 8 8 7 7 8 8 8 9 9 9 8 8 8 8 7 6 6 5 5 5
2 2 4 3 1 1 2 2 2 2 2 3 5 6 2 3 2 3 4 6 6 7 8 8 8 7 7 7 8 8 9 9 10 9 9 9 8 8 7 6 6 6 5 4
2 2 3 5 2 0 2 3 4 2 4 3 3 6 1 0 1 2 4 6 6 7 7 7 7 8 8 9 9 9 9 10 10 9 9 9 8 8 7 7 7 6 6 5
3 3 3 5 3 3 1 0 2 2 2 3 4 6 1 3 4 4 5 6 7 7 7 7 8 8 9 10 10 10 10 10 10 9 9 9 9 8 8 8 8 7 6 5
3 3 5 6 4 2 3 3 2 3 3 5 7 8 6 6 6 7 6 6 6 6 7 8 9 9 9 10 10 10 10 10 10 10 9 9 9 8 8 8 8 7 6 5
3 3 4 5 5 3 5 6 4 6 7 7 7 7 8 6 5 6 5 6 7 8 9 9 10 9 10 10 10 10 11 10 10 10 10 10 9 8 8 8 8 7 6 6
2 1 1 4 3 3 6 7 6 6 6 7 8 8 5 4 3 4 5 7 7 8 9 10 10 11 11 11 11 12 12 11 10 9 10 10 9 9 8 8 8 7 6 6
1 2 0 4 4 5 7 5 5 4 4 4 7 6 4 5 5 5 6 6 7 8 9 10 10 10 11 11 10 11 11 11 10 9 9 9 9 9 9 8 8 7 7 6
4 4 1 2 4 5 5 0 2 3 4 4 4 4 4 5 6 6 5 4 6 8 10 10 10 10 10 10 10 10 10 10 10 10 10 9 9 9 9 8 7 7 7 6
3 5 2 1 3 7 5 2 2 2 5 3 4 4 4 4 5 4 3 3 5 7 8 8 8 9 10 10 10 11 11 10 10 11 11 10 9 9 9 8 8 7 6 6
3 3 3 3 3 6 5 1 1 2 5 3 3 4 3 3 4 5 5 6 8 8 8 8 9 9 9 10 10 10 11 11 11 12 12 10 9 9 8 8 8 7 6 6
2 1 3 4 5 8 5 2 2 2 5 2 2 3 2 3 5 6 8 8 8 8 9 9 9 9 9 10 9 10 11 11 12 12 11 10 9 9 8 7 7 7 6 6
6 5 5 4 5 8 2 4 4 6 2 1 2 3 4 6 6 7 8 9 9 9 9 9 9 10 9 9 9 10 11 12 12 11 11 10 9 8 8 7 7 6 5 5
6 7 5 7 7 3 3 5 3 2 2 3 3 4 4 6 7 8 8 8 9 9 9 9 9 10 10 9 9 10 12 12 12 11 11 10 10 8 8 7 7 6 5 4
3 2 3 4 6 5 4 4 3 3 4 4 4 4 4 6 7 8 8 9 9 9 9 8 9 10 11 10 10 10 12 12 11 11 11 10 9 8 7 6 6 5 5 4
5 4 3 5 5 4 4 5 4 3 3 4 4 4 5 6 7 7 8 8 8 9 9 8 9 10 11 11 11 12 12 11 11 11 10 9 8 8 7 6 5 6 5 6
4 6 6 6 5 5 5 4 3 3 4 4 4 5 4 5 7 7 7 7 8 9 9 9 10 11 11 11 12 12 11 11 10 10 10 7 7 6 6 6 6 8 8 10
Wind_Direction
23 57 45 327 217 188 181 204 269 279 323 355 224 261 334 12 39 28 18 13 8 357 351 359 1 1 5 9 9 5 2 357 360 354 342 314 288 275 292 336 332 315 299 268
44 32 314 327 49 59 57 280 286 300 341 326 248 258 328 34 37 36 27 13 1 356 358 360 2 5 6 5 3 -0 358 354 354 347 324 308 294 267 266 318 325 312 300 279
111 296 336 52 36 19 332 229 263 283 333 356 324 290 229 20 50 39 31 16 6 3 357 353 356 357 0 4 358 352 348 348 348 350 347 346 347 333 319 308 298 309 296 287
60 338 25 36 8 18 283 284 286 284 317 284 231 281 251 239 4 18 12 6 360 356 355 354 355 355 356 352 349 349 346 348 350 355 359 356 340 318 304 297 284 295 295 291
348 353 21 3 314 302 251 312 294 263 207 282 270 235 280 48 328 335 346 351 350 351 351 351 351 348 348 348 349 347 346 350 351 351 350 348 335 317 316 315 293 282 287 287
320 326 46 267 325 336 329 10 25 49 89 271 234 198 277 241 278 306 326 340 344 347 348 347 349 351 351 352 355 353 352 349 349 347 342 340 330 325 320 316 304 290 277 275
343 347 3 25 19 10 43 57 10 351 350 260 254 210 253 260 329 301 310 327 337 345 348 350 351 352 352 353 351 351 351 346 345 342 337 327 316 312 306 299 289 292 286 278
351 307 328 7 72 251 351 132 158 246 263 290 303 242 248 90 23 16 360 343 349 349 347 347 345 346 346 347 348 350 346 341 340 338 332 326 317 310 307 304 294 280 276 271
190 281 339 0 345 130 103 143 162 152 278 279 273 285 286 94 15 7 3 359 350 343 342 340 339 344 345 345 345 344 339 336 337 336 331 328 327 320 310 304 296 288 287 294
161 274 304 327 21 31 109 141 95 128 264 278 288 273 268 277 314 337 345 342 337 339 341 339 339 340 339 337 337 340 338 336 332 332 332 331 327 323 315 312 309 304 300 302
125 216 309 346 217 227 72 96 112 150 190 217 282 278 247 231 255 294 313 324 328 334 337 336 336 337 336 338 339 340 340 340 339 337 332 329 325 323 322 318 312 309 309 301
112 126 278 273 278 268 164 173 149 180 252 214 234 272 339 148 304 308 314 325 331 332 334 336 337 341 345 344 342 343 341 338 335 334 333 328 325 326 324 319 317 314 309 306
124 111 336 337 353 15 19 189 165 162 183 208 219 266 349 13 349 332 326 328 331 334 339 342 345 347 344 341 341 340 338 336 333 332 332 331 328 326 321 317 317 314 308 304
115 155 191 227 255 256 273 265 203 174 213 241 233 262 299 321 326 325 326 327 328 334 340 344 345 342 338 337 337 335 333 333 333 333 332 330 325 321 316 315 317 312 307 301
108 210 239 256 273 265 256 262 241 222 220 232 258 262 281 290 293 302 317 327 334 337 341 342 339 335 334 335 336 336 332 332 333 332 330 327 323 319 318 318 319 315 310 305
86 176 312 287 291 293 278 269 251 243 242 248 269 277 281 298 307 318 326 328 326 329 331 333 334 333 333 332 332 332 331 330 330 328 324 324 325 324 321 318 318 316 309 306
140 131 8 281 321 333 282 255 222 223 230 226 249 262 301 314 314 311 314 316 313 318 323 327 326 325 324 324 325 325 324 325 325 323 321 322 324 323 320 318 318 316 309 308
152 145 175 295 357 266 253 233 187 221 254 241 245 265 279 282 293 290 289 293 306 317 321 321 321 322 321 321 323 322 323 326 325 323 322 320 322 320 320 318 315 313 308 305
156 153 163 197 274 279 289 256 172 222 280 241 231 265 290 310 317 300 301 310 303 306 309 311 313 314 318 321 323 324 326 327 327 325 322 318 318 316 317 317 315 313 309 305
79 110 148 166 233 258 261 248 144 102 288 264 213 259 290 347 324 297 319 323 317 316 317 316 316 317 320 320 323 325 324 326 325 321 317 314 315 312 312 311 312 314 311 304
116 124 189 204 234 265 258 250 122 186 267 278 223 253 257 241 249 284 311 313 312 313 316 318 318 318 317 320 325 324 322 321 318 317 317 317 315 311 306 306 309 312 310 309
185 184 200 183 219 258 223 140 184 226 274 267 257 258 262 270 284 299 306 310 315 317 319 320 320 317 318 323 325 321 318 316 317 318 318 316 314 311 310 309 309 312 310 310
201 196 193 198 219 248 189 200 225 196 247 260 258 270 273 282 288 300 304 306 309 311 314 317 316 315 319 323 323 317 315 318 319 318 317 316 314 311 310 309 308 310 308 306
248 185 193 249 261 250 242 242 250 232 237 254 260 269 266 275 287 295 301 306 309 312 313 316 318 317 318 321 320 313 314 318 318 317 315 314 314 313 312 307 304 304 303 303
225 175 204 253 273 298 269 230 236 253 254 270 279 270 268 275 286 291 297 301 305 310 313 314 314 312 313 317 317 317 319 321 318 315 313 314 313 309 308 308 302 298 290 295
199 184 190 230 226 212 251 246 230 245 264 272 278 287 285 275 282 291 293 297 303 307 312 314 314 313 314 316 316 318 320 320 318 316 316 314 313 311 310 309 312 312 310 312
Height
1519 1524 1530 1529 1529 1529 1530 1531 1532 1530 1528 1529 1530 1530 1530 1529 1527 1526 1525 1524 1522 1521 1520 1518 1516 1514 1512 1511 1510 1509 1508 1508 1508 1508 1508 1508 1508 1509 1510 1511 1512 1513 1513 1514
1526 1530 1529 1528 1528 1528 1529 1531 1533 1530 1529 1529 1530 1530 1529 1529 1528 1528 1527 1525 1523 1521 1518 1516 1514 1512 1510 1509 1508 1507 1506 1505 1505 1505 1505 1505 1505 1505 1506 1507 1508 1509 1509 1510
1529 1532 1528 1528 1529 1529 1529 1532 1532 1532 1530 1530 1531 1530 1530 1529 1529 1528 1527 1526 1524 1521 1519 1516 1513 1511 1509 1507 1506 1505 1504 1503 1503 1502 1502 1501 1501 1502 1502 1502 1503 1504 1505 1506
1531 1530 1529 1530 1530 1530 1531 1529 1529 1530 1534 1536 1533 1536 1529 1529 1529 1528 1527 1525 1523 1521 1519 1516 1513 1510 1508 1507 1506 1504 1503 1501 1500 1500 1499 1498 1497 1496 1497 1498 1498 1499 1501 1501
1532 1531 1531 1531 1531 1530 1531 1529 1529 1529 1532 1536 1535 1537 1530 1529 1529 1528 1527 1526 1524 1521 1519 1516 1513 1511 1508 1506 1504 1503 1501 1499 1498 1497 1496 1495 1494 1494 1494 1494 1494 1495 1496 1497
1532 1531 1531 1532 1531 1530 1530 1531 1531 1534 1536 1538 1534 1538 1531 1530 1528 1528 1527 1526 1524 1521 1519 1516 1513 1510 1508 1505 1503 1501 1499 1497 1496 1495 1493 1492 1491 1490 1490 1490 1489 1490 1491 1492
1534 1533 1532 1532 1532 1531 1532 1537 1541 1540 1542 1537 1533 1535 1532 1529 1527 1527 1526 1525 1523 1521 1518 1515 1512 1509 1506 1503 1501 1499 1497 1495 1493 1492 1491 1490 1488 1487 1486 1486 1485 1485 1485 1486
1540 1539 1534 1533 1533 1535 1535 1537 1544 1546 1545 1541 1535 1536 1531 1529 1528 1527 1526 1524 1522 1520 1518 1515 1512 1509 1506 1503 1500 1497 1495 1493 1491 1489 1488 1486 1485 1484 1482 1482 1482 1481 1481 1482
1543 1539 1535 1533 1533 1533 1536 1539 1540 1547 1549 1551 1539 1536 1531 1528 1528 1527 1525 1523 1521 1519 1517 1514 1511 1508 1505 1502 1499 1497 1494 1492 1489 1487 1485 1483 1481 1480 1479 1478 1478 1477 1477 1477
1541 1542 1537 1535 1533 1534 1535 1539 1545 1546 1547 1546 1538 1537 1532 1529 1528 1527 1525 1523 1521 1518 1516 1513 1510 1507 1505 1502 1499 1497 1494 1490 1487 1484 1482 1479 1478 1477 1476 1475 1474 1473 1473 1473
1541 1544 1541 1537 1537 1537 1539 1541 1543 1547 1547 1548 1546 1536 1529 1528 1527 1527 1525 1523 1521 1518 1515 1512 1509 1506 1503 1500 1497 1494 1491 1487 1485 1482 1479 1477 1475 1474 1472 1471 1470 1469 1469 1469
1542 1546 1546 1540 1537 1537 1537 1539 1543 1547 1547 1550 1551 1540 1528 1527 1526 1525 1524 1522 1520 1517 1514 1511 1508 1504 1501 1498 1495 1491 1489 1485 1482 1479 1477 1474 1472 1470 1468 1467 1466 1465 1465 1465
1542 1546 1548 1540 1541 1540 1539 1539 1540 1543 1546 1549 1548 1537 1528 1527 1525 1525 1523 1521 1518 1516 1513 1510 1506 1503 1500 1496 1493 1489 1487 1484 1481 1478 1475 1472 1469 1467 1465 1463 1462 1461 1461 1461
1540 1545 1547 1544 1539 1540 1540 1538 1539 1542 1546 1545 1541 1534 1529 1527 1526 1524 1522 1520 1517 1515 1512 1508 1505 1502 1498 1495 1492 1488 1485 1482 1479 1475 1472 1469 1467 1465 1462 1460 1459 1458 1457 1457
1540 1544 1544 1542 1540 1539 1538 1537 1537 1538 1538 1539 1533 1533 1528 1527 1526 1523 1521 1519 1516 1513 1510 1507 1504 1500 1497 1493 1489 1486 1483 1479 1476 1473 1470 1467 1464 1462 1460 1458 1456 1455 1454 1453
1541 1544 1545 1543 1539 1539 1537 1534 1534 1534 1534 1534 1531 1530 1527 1526 1524 1522 1520 1518 1515 1513 1510 1506 1503 1499 1495 1491 1487 1483 1480 1476 1474 1470 1467 1464 1461 1459 1457 1455 1453 1451 1450 1449
1543 1545 1546 1545 1542 1539 1537 1533 1532 1533 1532 1533 1532 1530 1526 1525 1523 1521 1519 1517 1515 1512 1509 1505 1501 1497 1493 1489 1485 1481 1477 1474 1471 1467 1464 1461 1459 1456 1453 1451 1450 1448 1447 1446
1543 1544 1547 1547 1547 1547 1535 1531 1530 1531 1531 1530 1528 1527 1526 1524 1522 1520 1518 1516 1513 1511 1507 1503 1499 1495 1491 1487 1483 1478 1474 1470 1467 1464 1461 1458 1456 1453 1451 1448 1446 1445 1443 1442
1539 1542 1547 1550 1550 1541 1533 1530 1531 1532 1530 1527 1526 1525 1524 1522 1520 1517 1516 1515 1512 1509 1505 1501 1497 1493 1488 1484 1479 1474 1470 1467 1464 1460 1457 1455 1453 1450 1447 1445 1443 1441 1440 1438
1541 1542 1547 1550 1548 1541 1532 1530 1529 1532 1531 1525 1524 1523 1523 1522 1522 1517 1514 1512 1509 1506 1502 1498 1494 1490 1485 1481 1476 1472 1467 1464 1460 1457 1454 1451 1449 1446 1444 1441 1439 1438 1436 1435
1543 1546 1548 1549 1548 1537 1530 1528 1529 1535 1529 1524 1522 1522 1521 1521 1520 1516 1512 1509 1506 1503 1499 1495 1491 1486 1482 1478 1473 1469 1465 1461 1458 1454 1451 1448 1445 1443 1440 1438 1436 1434 1433 1431
1540 1544 1546 1547 1547 1538 1527 1527 1529 1527 1523 1522 1521 1520 1519 1518 1515 1513 1510 1507 1503 1499 1496 1492 1487 1483 1479 1475 1471 1466 1462 1458 1454 1451 1447 1444 1441 1439 1437 1434 1432 1431 1429 1428
1536 1535 1535 1536 1531 1525 1523 1522 1522 1522 1521 1520 1519 1518 1517 1514 1512 1510 1507 1504 1500 1497 1493 1489 1485 1480 1476 1473 1468 1463 1459 1455 1451 1447 1443 1440 1437 1435 1433 1431 1429 1427 1426 1424
1531 1530 1531 1530 1523 1521 1521 1520 1520 1520 1519 1518 1517 1516 1514 1512 1509 1507 1504 1501 1498 1494 1490 1486 1482 1477 1473 1470 1466 1461 1457 1452 1448 1443 1440 1436 1434 1431 1429 1427 1426 1424 1423 1421
1525 1527 1528 1526 1521 1519 1517 1517 1517 1517 1516 1515 1514 1513 1511 1509 1506 1504 1501 1498 1495 1491 1487 1483 1479 1475 1470 1467 1462 1458 1454 1449 1445 1441 1437 1434 1431 1429 1426 1424 1423 1421 1420 1420
1520 1521 1523 1520 1516 1517 1515 1515 1515 1514 1513 1512 1511 1509 1508 1506 1504 1501 1498 1495 1492 1488 1484 1480 1476 1472 1468 1464 1459 1455 1451 1447 1442 1438 1434 1431 1428 1426 1424 1421 1419 1418 1418 1417